#timestamp,LO_Frequency,Hit,StdDev 
1617022815.1,286046998.1,N
1617022835.8,286047001.2,N
1617022855.7,286046998.2,N
1617022875.5,286047000.5,N
1617022895.4,286047000.6,N
1617022915.2,286047001.0,N
1617022935.0,286047000.7,N
1617022935.9,286047000.7,N
1617022955.8,286047000.1,N
1617022975.6,286047000.3,N
1617022995.4,286047000.3,N
1617023015.3,286047000.2,N
1617023035.1,286047000.6,N
1617023055.9,286047000.2,N
1617023075.7,286047000.2,N
1617023095.5,286047000.2,N
1617023115.4,286046999.8,N
1617023135.2,286047000.1,N
1617023155.0,286047000.1,N
1617023155.9,286047000.1,N
1617023175.8,286047000.9,N
1617023195.6,286047000.3,N
1617023215.5,286047000.3,N
1617023235.3,286046999.9,N
1617023255.1,286046999.9,N
1617023275.9,286046999.9,N
1617023295.7,286046999.9,N
1617023315.5,286047000.3,N
1617023335.4,286047000.3,N
1617023355.2,286047000.3,N
1617023375.1,286047000.4,N
1617023376.0,286047000.4,N
1617023395.8,286046999.9,N
1617023415.6,286047000.1,N
1617023435.5,286047000.0,N
1617023455.3,286046999.9,N
1617023475.2,286046999.8,N
1617023495.9,286047000.1,N
1617023515.7,286046999.7,N
1617023535.6,286047002.8,Y
1617023555.4,286047002.8,P
1617023575.2,286047000.2,N
1617023595.1,286046999.9,N
1617023596.0,286046999.9,N
1617023615.8,286046999.8,N
1617023635.7,286047002.5,N
1617023655.5,286047002.7,N
1617023675.3,286047002.4,N
1617023695.2,286047002.3,N
1617023715.0,286047002.6,N
1617023715.9,286047002.6,N
1617023735.8,286047002.4,N
1617023755.6,286047000.1,N
1617023775.4,286047002.8,N
1617023795.3,286047000.1,N
1617023815.1,286047000.2,N
1617023835.8,286047000.1,N
1617023855.7,286047002.7,N
1617023875.5,286047000.0,N
1617023895.4,286047000.2,N
1617023915.2,286046999.9,N
1617023935.0,286046999.9,N
1617023935.9,286046999.9,N
1617023955.8,286047000.4,N
1617023975.6,286047000.5,N
1617023995.4,286047000.4,N
1617024015.3,286047000.9,N
1617024035.1,286047000.9,N
1617024055.9,286047000.3,N
1617024075.7,286047000.0,N
1617024095.5,286047000.0,N
1617024115.4,286047000.0,N
1617024135.2,286047001.1,N
1617024155.1,286047000.6,N
1617024156.0,286047000.6,N
1617024175.8,286047000.6,N
1617024195.6,286047000.5,N
1617024215.5,286047000.3,N
1617024235.3,286047001.0,N
1617024255.1,286047000.3,N
1617024275.9,286047000.9,N
1617024295.7,286047001.0,N
1617024315.6,286047000.6,N
1617024335.4,286047000.6,N
1617024355.2,286047000.4,N
1617024375.1,286046999.9,N
1617024376.0,286046999.9,N
1617024395.8,286047000.3,N
1617024415.7,286047001.0,N
1617024435.5,286047000.5,N
1617024455.3,286047001.2,Y
1617024475.2,286047001.0,P
1617024495.0,286047001.0,P
1617024495.9,286047001.0,P
1617024515.8,286047000.7,N
1617024535.6,286047000.8,Y
1617024555.4,286046998.2,P
1617024575.3,286046999.3,N
1617024595.1,286046998.7,N
1617024615.8,286046998.4,N
1617024635.7,286046998.3,N
1617024655.5,286046998.9,N
1617024675.4,286046998.8,N
1617024695.2,286046998.7,N
1617024715.0,286046998.7,N
1617024715.9,286046998.7,N
1617024735.8,286046998.4,N
1617024755.6,286046999.1,N
1617024775.5,286046998.9,N
1617024795.3,286046999.1,N
1617024815.1,286046998.3,N
1617024835.9,286046998.9,N
1617024855.7,286046998.3,N
1617024875.6,286046998.2,Y
1617024895.4,286046999.9,P
1617024915.2,286047000.9,N
1617024935.1,286047000.5,N
1617024936.0,286047000.5,N
1617024955.8,286047000.7,N
1617024975.6,286047001.0,N
1617024995.5,286047001.0,N
1617025015.3,286047000.4,N
1617025035.2,286047000.5,N
1617025055.9,286047001.0,N
1617025075.7,286047000.3,N
1617025095.6,286047000.7,N
1617025115.4,286047000.6,N
1617025135.3,286047002.8,Y
1617025155.1,286047000.6,P
1617025156.0,286047000.6,P
1617025175.8,286047000.7,P
1617025195.7,286047001.0,Y
1617025215.5,286046998.5,P
1617025235.3,286046998.9,N
1617025255.2,286046998.9,N
1617025275.0,286046999.0,N
1617025275.9,286046999.0,N
1617025295.8,286046999.1,N
1617025315.6,286046998.3,N
1617025335.4,286046999.3,N
1617025355.3,286046999.5,N
1617025375.1,286046999.5,N
1617025395.9,286046999.5,N
1617025415.7,286046999.2,N
1617025435.5,286046998.9,N
1617025455.4,286046999.2,N
1617025475.2,286046999.1,N
1617025495.0,286046999.2,N
1617025495.9,286046999.2,N
1617025515.8,286046999.0,N
1617025535.6,286046999.5,N
1617025555.5,286046999.1,N
1617025575.3,286046996.9,Y
1617025595.1,286046998.3,P
1617025615.9,286046998.6,P
1617025635.7,286046998.4,P
1617025655.6,286046998.5,Y
1617025675.4,286047000.6,P
1617025695.2,286047000.5,N
1617025715.1,286047000.4,N
1617025716.0,286047000.4,N
1617025735.8,286047000.3,N
1617025755.6,286047000.6,N
1617025775.5,286046999.8,N
1617025795.3,286047001.0,N
1617025815.2,286047000.4,N
1617025835.9,286047000.4,N
1617025855.7,286047000.9,N
1617025875.6,286047001.0,N
1617025895.4,286047000.5,N
1617025915.2,286046999.8,N
1617025935.1,286047000.6,N
1617025936.0,286047000.6,N
1617025955.8,286047000.9,N
1617025975.7,286047000.0,N
1617025995.5,286047001.0,N
1617026015.3,286047000.7,N
1617026035.2,286046999.9,N
1617026055.0,286047001.0,N
1617026055.9,286047001.0,N
1617026075.8,286047000.7,N
1617026095.6,286047000.0,N
1617026115.4,286047000.9,N
1617026135.3,286047000.8,N
1617026155.1,286047000.6,N
1617026175.8,286047000.0,N
1617026195.7,286047002.7,Y
1617026215.5,286047000.8,P
1617026235.4,286047000.4,N
1617026255.2,286047001.1,P
1617026275.0,286047000.5,N
1617026275.9,286047000.5,N
1617026295.8,286047002.8,Y
1617026315.6,286047001.1,P
1617026335.5,286047001.2,P
1617026355.3,286047001.1,P
1617026375.1,286047000.3,N
1617026395.9,286047000.6,N
